Погода в Бурленге

Швеция     60°28′41″N   15°24′34″E
темп.,
°C
ветер,
м/с
пор.,
м/с
влажн.,
%
обл.,
%
осадки,
мм/ч
давл.,
гПа
погр.,
м
5 марта, пт
пт501:00−2сз4116841 0.0 1018625
04:00−3сз3117023 0.0 1018671
07:00−4сз2117212 0.0 1020577
10:00−1ссз36560 0.0 10211079
13:000ссз364933 0.0 10221481
16:00+1сз365288 0.0 10221190
19:00−1з386664 0.0 1022263
22:00−1з31057100 0.0 1022358
6 марта, сб
сб601:00−1зюз4124791 0.0 1020466
04:000зюз51244100 0.0 1017447
07:00+1зюз51543100 0.1 1014675
10:00+2з61345100 0.0 1011825
13:00+4з71446100 0.0 10081056
16:00+4зсз61460100 0.0 10071497
19:00−1сз82044100 0.1 10091948
22:00−3сз5125251 0.0 10122134
7 марта, вс
вс701:00−3сз7184843 0.0 10112220
04:00−3сз8184744 0.0 10102108
07:00−3сз717481 0.0 10101754
10:00−1сз9164728 0.0 10092362
13:000ссз6133864 0.1 10102034
16:00+1ссз5134198 0.0 10122014
19:00−2ссз3106176 0.0 1014680
22:00−4с310670 0.0 1017847
8 марта, пн
пн801:00−4с49690 0.0 1019748
04:00−6с38730 0.0 1021554
07:00−7ссз26770 0.0 1023327
10:00−3ссз245316 0.0 1023489
13:00−1сз223853 0.0 1024729
16:00−1з2437100 0.0 1022701
19:00−3юз2445100 0.0 1022137
22:00−3зюз3845100 0.0 1021413
9 марта, вт
вт901:00−3зюз3946100 0.0 1020484
04:00−4зюз3105260 0.0 1018507
07:00−4з4116570 0.0 1017497
10:00−1з41060100 0.0 1016576
13:00+1з4952100 0.0 1015700
16:00+1з4855100 0.0 1014799
19:00−1з3107092 0.0 1014500
22:00−3з28745 0.0 1014300